| time (UTC) | temp C | wind direction | speed KPH | gust KPH | rain 1hr cm | rain 24hr cm | rain mn cm | humidity % | barometer mb |
| 20260509184528 | 12 | 267 | 1.6 | 3.2 | 0.00 | 0.10 | 0.10 | 84 | 1012.4 |
| 20260509184028 | 12 | 154 | 0.0 | 1.6 | 0.00 | 0.10 | 0.10 | 85 | 1012.1 |
| 20260509183528 | 11 | 74 | 1.6 | 11.3 | 0.00 | 0.10 | 0.10 | 85 | 1012.2 |
| 20260509183028 | 11 | 91 | 1.6 | 6.4 | 0.00 | 0.10 | 0.10 | 85 | 1012.3 |
| 20260509182548 | 11 | 82 | 1.6 | 6.4 | 0.00 | 0.10 | 0.10 | 84 | 1012.7 |
| 20260509182028 | 11 | 82 | 1.6 | 4.8 | 0.00 | 0.10 | 0.10 | 83 | 1013.3 |
| 20260509181528 | 11 | 80 | 0.0 | 1.6 | 0.00 | 0.10 | 0.10 | 83 | 1013.4 |
| 20260509181028 | 11 | 90 | 0.0 | 3.2 | 0.00 | 0.10 | 0.10 | 83 | 1013.5 |
| 20260509180527 | 11 | 111 | 0.0 | 3.2 | 0.00 | 0.10 | 0.10 | 82 | 1013.6 |
| 20260509180027 | 11 | 138 | 0.0 | 4.8 | 0.00 | 0.10 | 0.10 | 82 | 1013.5 |
| 20260509175547 | 11 | 129 | 1.6 | 6.4 | 0.00 | 0.10 | 0.10 | 82 | 1013.4 |
| 20260509175027 | 11 | 77 | 1.6 | 4.8 | 0.00 | 0.10 | 0.10 | 81 | 1013.4 |
| 20260509174529 | 11 | 98 | 1.6 | 6.4 | 0.00 | 0.10 | 0.10 | 81 | 1013.2 |
| 20260509174049 | 11 | 110 | 3.2 | 9.7 | 0.00 | 0.10 | 0.10 | 81 | 1013.2 |
| 20260509173548 | 11 | 98 | 1.6 | 9.7 | 0.00 | 0.10 | 0.10 | 81 | 1013.3 |
| 20260509173028 | 11 | 79 | 1.6 | 6.4 | 0.00 | 0.10 | 0.10 | 81 | 1013.5 |
| 20260509172528 | 11 | 89 | 3.2 | 9.7 | 0.00 | 0.10 | 0.10 | 80 | 1013.4 |
| 20260509172028 | 11 | 86 | 3.2 | 6.4 | 0.00 | 0.10 | 0.10 | 81 | 1013.5 |
| 20260509171528 | 11 | 74 | 1.6 | 4.8 | 0.00 | 0.10 | 0.10 | 79 | 1013.4 |
| 20260509171048 | 11 | 84 | 1.6 | 6.4 | 0.00 | 0.10 | 0.10 | 80 | 1013.5 |
| 20260509170528 | 11 | 90 | 3.2 | 9.7 | 0.00 | 0.10 | 0.10 | 78 | 1013.6 |
| 20260509170028 | 11 | 109 | 1.6 | 9.7 | 0.00 | 0.10 | 0.10 | 77 | 1013.7 |
| 20260509165527 | 11 | 94 | 1.6 | 3.2 | 0.00 | 0.10 | 0.10 | 77 | 1013.5 |
| 20260509165027 | 11 | 75 | 1.6 | 9.7 | 0.00 | 0.10 | 0.10 | 77 | 1013.6 |
| 20260509164527 | 11 | 87 | 1.6 | 4.8 | 0.00 | 0.10 | 0.10 | 76 | 1013.7 |
| 20260509164027 | 11 | 93 | 1.6 | 4.8 | 0.00 | 0.10 | 0.10 | 76 | 1013.8 |
| 20260509163527 | 11 | 100 | 1.6 | 4.8 | 0.03 | 0.10 | 0.10 | 76 | 1013.9 |
| 20260509163027 | 11 | 115 | 1.6 | 6.4 | 0.03 | 0.10 | 0.10 | 75 | 1013.9 |
| 20260509162526 | 11 | 184 | 0.0 | 3.2 | 0.03 | 0.10 | 0.10 | 77 | 1013.8 |
| 20260509162027 | 11 | 109 | 1.6 | 4.8 | 0.03 | 0.10 | 0.10 | 76 | 1013.8 |
| 20260509161547 | 11 | 135 | 1.6 | 6.4 | 0.03 | 0.10 | 0.10 | 77 | 1013.8 |
| 20260509161028 | 11 | 129 | 1.6 | 6.4 | 0.03 | 0.10 | 0.10 | 77 | 1013.9 |
| 20260509160528 | 11 | 122 | 0.0 | 3.2 | 0.03 | 0.10 | 0.10 | 79 | 1014.0 |
| 20260509160028 | 10 | 134 | 0.0 | 3.2 | 0.03 | 0.10 | 0.10 | 80 | 1014.1 |
| 20260509155528 | 10 | 114 | 1.6 | 9.7 | 0.03 | 0.10 | 0.10 | 81 | 1014.0 |
| 20260509155028 | 10 | 75 | 1.6 | 6.4 | 0.03 | 0.08 | 0.08 | 83 | 1013.8 |
| 20260509154527 | 10 | 63 | 0.0 | 4.8 | 0.03 | 0.08 | 0.08 | 82 | 1014.0 |
| 20260509154027 | 10 | 80 | 1.6 | 9.7 | 0.03 | 0.08 | 0.08 | 82 | 1014.0 |
| 20260509153527 | 10 | 81 | 3.2 | 9.7 | 0.00 | 0.08 | 0.08 | 83 | 1014.0 |
| 20260509153027 | 10 | 85 | 1.6 | 9.7 | 0.00 | 0.08 | 0.08 | 86 | 1014.0 |
| 20260509152527 | 10 | 90 | 0.0 | 3.2 | 0.03 | 0.08 | 0.08 | 88 | 1014.1 |
| 20260509152029 | 10 | 80 | 0.0 | 1.6 | 0.03 | 0.08 | 0.08 | 87 | 1014.3 |
| 20260509151529 | 10 | 80 | 0.0 | 3.2 | 0.03 | 0.08 | 0.08 | 89 | 1014.4 |
| 20260509151029 | 9 | 90 | 0.0 | 1.6 | 0.03 | 0.08 | 0.08 | 90 | 1014.4 |
| 20260509150528 | 9 | 90 | 0.0 | 1.6 | 0.03 | 0.08 | 0.08 | 91 | 1014.3 |
| 20260509150028 | 9 | 90 | 0.0 | 1.6 | 0.03 | 0.08 | 0.08 | 90 | 1014.4 |
| 20260509145548 | 9 | 90 | 0.0 | 1.6 | 0.03 | 0.08 | 0.08 | 90 | 1014.5 |
| 20260509145028 | 9 | 90 | 0.0 | 1.6 | 0.03 | 0.08 | 0.08 | 88 | 1014.7 |
| 20260509144528 | 9 | 108 | 0.0 | 3.2 | 0.03 | 0.08 | 0.08 | 89 | 1014.8 |
| 20260509144028 | 8 | 0.0 | 0.0 | 0.03 | 0.08 | 0.08 | 89 | 1015.0 | |
| 20260509143528 | 8 | 0.0 | 0.0 | 0.03 | 0.08 | 0.08 | 88 | 1014.9 | |
| 20260509143027 | 8 | 0.0 | 0.0 | 0.03 | 0.08 | 0.08 | 87 | 1015.0 | |
| 20260509142527 | 8 | 0.0 | 0.0 | 0.03 | 0.05 | 0.05 | 85 | 1015.0 | |
| 20260509142028 | 8 | 0.0 | 0.0 | 0.03 | 0.05 | 0.05 | 86 | 1015.1 | |
| 20260509141527 | 8 | 0.0 | 0.0 | 0.03 | 0.05 | 0.05 | 88 | 1015.1 | |
| 20260509141027 | 8 | 0.0 | 1.6 | 0.03 | 0.05 | 0.05 | 85 | 1015.2 | |
| 20260509140529 | 8 | 130 | 0.0 | 3.2 | 0.03 | 0.05 | 0.05 | 86 | 1015.1 |
| 20260509140029 | 8 | 186 | 0.0 | 3.2 | 0.03 | 0.05 | 0.05 | 87 | 1015.3 |
| 20260509135529 | 8 | 180 | 1.6 | 4.8 | 0.03 | 0.05 | 0.05 | 89 | 1015.2 |
| 20260509135028 | 8 | 199 | 0.0 | 1.6 | 0.03 | 0.05 | 0.05 | 90 | 1015.2 |
| 20260509134528 | 8 | 200 | 0.0 | 3.2 | 0.03 | 0.05 | 0.05 | 91 | 1015.1 |
| 20260509134028 | 8 | 199 | 0.0 | 3.2 | 0.03 | 0.05 | 0.05 | 91 | 1015.2 |
| 20260509133528 | 7 | 0.0 | 0.0 | 0.03 | 0.05 | 0.05 | 90 | 1015.0 | |
| 20260509133028 | 8 | 0.0 | 0.0 | 0.03 | 0.03 | 0.03 | 91 | 1015.0 | |
| 20260509132548 | 7 | 0.0 | 0.0 | 0.03 | 0.03 | 0.03 | 91 | 1014.9 | |
| 20260509132028 | 7 | 0.0 | 0.0 | 0.03 | 0.03 | 0.03 | 92 | 1014.9 | |
| 20260509131527 | 7 | 0.0 | 0.0 | 0.00 | 0.03 | 0.03 | 93 | 1014.8 | |
| 20260509131047 | 7 | 0.0 | 0.0 | 0.00 | 0.03 | 0.03 | 94 | 1014.8 | |
| 20260509130527 | 7 | 0.0 | 0.0 | 0.03 | 0.03 | 0.03 | 94 | 1014.9 | |
| 20260509130047 | 7 | 0.0 | 0.0 | 0.03 | 0.03 | 0.03 | 94 | 1014.9 | |
| 20260509125529 | 7 | 0.0 | 0.0 | 0.03 | 0.03 | 0.03 | 94 | 1014.9 | |
| 20260509125029 | 7 | 0.0 | 0.0 | 0.03 | 0.03 | 0.03 | 94 | 1015.0 | |
| 20260509124529 | 7 | 0.0 | 0.0 | 0.03 | 0.03 | 0.03 | 94 | 1015.1 | |
| 20260509124028 | 7 | 0.0 | 0.0 | 0.03 | 0.03 | 0.03 | 94 | 1015.1 | |
| 20260509123528 | 7 | 0.0 | 0.0 | 0.03 | 0.03 | 0.03 | 93 | 1015.1 | |
| 20260509123029 | 7 | 0.0 | 0.0 | 0.03 | 0.03 | 0.03 | 92 | 1015.2 | |
| 20260509122528 | 7 | 0.0 | 0.0 | 0.03 | 0.03 | 0.03 | 92 | 1015.2 | |
| 20260509122028 | 6 | 0.0 | 0.0 | 0.03 | 0.03 | 0.03 | 91 | 1015.2 | |
| 20260509121528 | 6 | 0.0 | 0.0 | 0.03 | 0.03 | 0.03 | 91 | 1015.3 | |
| 20260509121049 | 6 | 0.0 | 0.0 | 0.03 | 0.03 | 0.03 | 90 | 1015.6 | |
| 20260509120527 | 6 | 210 | 0.0 | 1.6 | 0.00 | 0.00 | 0.00 | 89 | 1015.5 |
| 20260509120027 | 6 | 204 | 0.0 | 1.6 | 0.00 | 0.00 | 0.00 | 88 | 1015.4 |
| 20260509115527 | 6 | 0.0 | 0.0 | 0.00 | 0.00 | 0.00 | 88 | 1015.3 | |
| 20260509115027 | 6 | 93 | 0.0 | 3.2 | 0.00 | 0.00 | 0.00 | 88 | 1015.5 |
| 20260509114547 | 6 | 170 | 0.0 | 3.2 | 0.00 | 0.00 | 0.00 | 87 | 1015.5 |
| 20260509114029 | 6 | 212 | 1.6 | 3.2 | 0.00 | 0.00 | 0.00 | 86 | 1015.5 |
| 20260509113549 | 6 | 0.0 | 0.0 | 0.00 | 0.00 | 0.00 | 84 | 1015.3 | |
| 20260509113049 | 6 | 24 | 0.0 | 1.6 | 0.00 | 0.00 | 0.00 | 85 | 1015.4 |
| 20260509112528 | 6 | 0.0 | 0.0 | 0.00 | 0.00 | 0.00 | 86 | 1015.4 | |
| 20260509112049 | 6 | 19 | 0.0 | 1.6 | 0.00 | 0.00 | 0.00 | 88 | 1015.5 |
| 20260509111528 | 5 | 0.0 | 0.0 | 0.00 | 0.00 | 0.00 | 88 | 1015.4 | |
| 20260509111028 | 5 | 0.0 | 0.0 | 0.00 | 0.00 | 0.00 | 88 | 1015.2 | |
| 20260509110528 | 5 | 0.0 | 0.0 | 0.00 | 0.00 | 0.00 | 88 | 1015.3 | |
| 20260509110028 | 5 | 0.0 | 0.0 | 0.00 | 0.00 | 0.00 | 89 | 1015.3 | |
| 20260509105528 | 5 | 0.0 | 0.0 | 0.00 | 0.00 | 0.00 | 90 | 1015.3 | |
| 20260509105029 | 4 | 0.0 | 0.0 | 0.00 | 0.00 | 0.00 | 91 | 1015.3 | |
| 20260509104529 | 4 | 0.0 | 0.0 | 0.00 | 0.00 | 0.00 | 91 | 1015.4 | |
| 20260509104028 | 4 | 0.0 | 0.0 | 0.00 | 0.00 | 0.00 | 92 | 1015.3 | |
| 20260509103528 | 3 | 0.0 | 0.0 | 0.00 | 0.00 | 0.00 | 92 | 1015.3 | |
| 20260509103028 | 3 | 0.0 | 0.0 | 0.00 | 0.00 | 0.00 | 93 | 1015.2 | |
| 20260509102528 | 3 | 0.0 | 0.0 | 0.00 | 0.00 | 0.00 | 94 | 1015.1 | |
| 20260509102028 | 3 | 0.0 | 0.0 | 0.00 | 0.00 | 0.00 | 94 | 1015.0 | |
| 20260509101528 | 3 | 0.0 | 0.0 | 0.00 | 0.00 | 0.00 | 94 | 1014.9 | |
| 20260509101028 | 2 | 0.0 | 0.0 | 0.00 | 0.00 | 0.00 | 94 | 1015.0 | |
| 20260509100527 | 2 | 0.0 | 0.0 | 0.00 | 0.00 | 0.00 | 94 | 1014.8 | |
| 20260509100027 | 2 | 0.0 | 0.0 | 0.00 | 0.00 | 0.00 | 94 | 1014.7 | |
| 20260509095527 | 2 | 0.0 | 0.0 | 0.00 | 0.00 | 0.00 | 94 | 1014.7 | |
| 20260509095027 | 2 | 0.0 | 0.0 | 0.00 | 0.00 | 0.00 | 94 | 1014.5 | |
| 20260509094547 | 2 | 0.0 | 0.0 | 0.00 | 0.00 | 0.00 | 94 | 1014.5 | |
| 20260509094049 | 2 | 0.0 | 0.0 | 0.00 | 0.00 | 0.00 | 94 | 1014.5 | |
| 20260509093529 | 2 | 0.0 | 0.0 | 0.00 | 0.00 | 0.00 | 94 | 1014.5 | |
| 20260509093029 | 2 | 0.0 | 0.0 | 0.00 | 0.00 | 0.00 | 95 | 1014.5 | |
| 20260509092528 | 2 | 0.0 | 0.0 | 0.00 | 0.00 | 0.00 | 95 | 1014.4 | |
| 20260509092028 | 2 | 0.0 | 0.0 | 0.00 | 0.00 | 0.00 | 95 | 1014.4 | |
| 20260509091528 | 2 | 0.0 | 0.0 | 0.00 | 0.00 | 0.00 | 95 | 1014.4 | |
| 20260509091028 | 2 | 0.0 | 0.0 | 0.00 | 0.00 | 0.00 | 95 | 1014.4 | |
| 20260509090548 | 2 | 0.0 | 0.0 | 0.00 | 0.00 | 0.00 | 95 | 1014.4 | |
| 20260509090028 | 2 | 0.0 | 0.0 | 0.00 | 0.00 | 0.00 | 94 | 1014.3 | |
| 20260509085528 | 2 | 0.0 | 0.0 | 0.00 | 0.00 | 0.00 | 94 | 1014.2 | |
| 20260509085028 | 2 | 0.0 | 0.0 | 0.00 | 0.00 | 0.00 | 94 | 1014.3 | |
| 20260509084527 | 2 | 0.0 | 0.0 | 0.00 | 0.00 | 0.00 | 94 | 1014.3 | |
| 20260509084027 | 2 | 0.0 | 0.0 | 0.00 | 0.00 | 0.00 | 94 | 1014.1 | |
| 20260509083527 | 2 | 0.0 | 0.0 | 0.00 | 0.00 | 0.00 | 94 | 1014.2 | |
| 20260509083027 | 2 | 0.0 | 0.0 | 0.00 | 0.00 | 0.00 | 94 | 1014.2 | |
| 20260509082549 | 2 | 0.0 | 0.0 | 0.00 | 0.00 | 0.00 | 93 | 1014.2 | |
| 20260509082049 | 2 | 0.0 | 0.0 | 0.00 | 0.00 | 0.00 | 92 | 1014.3 | |
| 20260509081548 | 2 | 0.0 | 0.0 | 0.00 | 0.00 | 0.00 | 92 | 1014.2 | |
| 20260509081029 | 2 | 0.0 | 0.0 | 0.00 | 0.00 | 0.00 | 92 | 1014.2 | |
| 20260509080528 | 2 | 0.0 | 0.0 | 0.00 | 0.00 | 0.00 | 92 | 1014.2 | |
| 20260509080049 | 2 | 0.0 | 0.0 | 0.00 | 0.00 | 0.00 | 92 | 1014.2 | |
| 20260509075528 | 2 | 0.0 | 0.0 | 0.00 | 0.00 | 0.00 | 92 | 1014.3 | |
| 20260509075029 | 2 | 0.0 | 0.0 | 0.00 | 0.00 | 0.00 | 91 | 1014.2 | |
| 20260509074528 | 2 | 0.0 | 0.0 | 0.00 | 0.00 | 0.00 | 90 | 1014.5 | |
| 20260509074028 | 2 | 0.0 | 0.0 | 0.00 | 0.00 | 0.00 | 90 | 1014.4 | |
| 20260509073548 | 2 | 0.0 | 0.0 | 0.00 | 0.00 | 0.00 | 90 | 1014.4 | |
| 20260509073027 | 2 | 0.0 | 0.0 | 0.00 | 0.00 | 0.00 | 90 | 1014.4 | |
| 20260509072527 | 3 | 0.0 | 0.0 | 0.00 | 0.00 | 0.00 | 90 | 1014.5 | |
| 20260509072048 | 3 | 0.0 | 0.0 | 0.00 | 0.00 | 0.00 | 90 | 1014.3 | |
| 20260509071547 | 3 | 0.0 | 0.0 | 0.00 | 0.00 | 0.00 | 89 | 1014.4 | |
| 20260509071027 | 3 | 16 | 0.0 | 1.6 | 0.00 | 0.00 | 0.00 | 89 | 1014.3 |
| 20260509070528 | 3 | 16 | 0.0 | 1.6 | 0.00 | 0.00 | 0.00 | 89 | 1014.2 |
| 20260509070028 | 3 | 0.0 | 0.0 | 0.00 | 0.00 | 0.00 | 89 | 1014.1 | |
| 20260509065548 | 3 | 0.0 | 0.0 | 0.00 | 0.00 | 0.00 | 89 | 1013.9 | |
| 20260509065028 | 3 | 0.0 | 0.0 | 0.00 | 0.00 | 0.00 | 89 | 1014.0 | |
| 20260509064528 | 3 | 0.0 | 0.0 | 0.00 | 0.00 | 0.00 | 89 | 1014.0 | |
| 20260509064028 | 3 | 0.0 | 0.0 | 0.00 | 0.00 | 0.00 | 89 | 1014.1 | |
| 20260509063527 | 3 | 0.0 | 0.0 | 0.00 | 0.00 | 0.00 | 88 | 1014.2 | |
| 20260509063028 | 3 | 0.0 | 0.0 | 0.00 | 0.00 | 0.00 | 89 | 1014.1 | |
| 20260509062548 | 3 | 0.0 | 0.0 | 0.00 | 0.00 | 0.00 | 89 | 1014.0 | |
| 20260509062027 | 3 | 0.0 | 0.0 | 0.00 | 0.00 | 0.00 | 88 | 1014.0 | |
| 20260509061527 | 3 | 0.0 | 0.0 | 0.00 | 0.00 | 0.00 | 88 | 1014.0 | |
| 20260509061047 | 3 | 0.0 | 0.0 | 0.00 | 0.00 | 0.00 | 88 | 1014.0 | |
| 20260509060527 | 3 | 0.0 | 0.0 | 0.00 | 0.00 | 0.00 | 88 | 1013.8 | |
| 20260509060029 | 3 | 0.0 | 0.0 | 0.00 | 0.00 | 0.00 | 88 | 1013.9 | |
| 20260509055529 | 3 | 0.0 | 0.0 | 0.00 | 0.00 | 0.00 | 88 | 1013.9 | |
| 20260509055029 | 3 | 0.0 | 0.0 | 0.00 | 0.00 | 0.00 | 87 | 1014.1 | |
| 20260509054528 | 3 | 0.0 | 0.0 | 0.00 | 0.00 | 0.00 | 88 | 1014.1 | |
| 20260509054028 | 3 | 0.0 | 0.0 | 0.00 | 0.00 | 0.00 | 88 | 1014.1 | |
| 20260509053528 | 3 | 0.0 | 0.0 | 0.00 | 0.00 | 0.00 | 88 | 1014.1 | |
| 20260509053028 | 3 | 0.0 | 0.0 | 0.00 | 0.00 | 0.00 | 87 | 1014.1 | |
| 20260509052528 | 3 | 0.0 | 0.0 | 0.00 | 0.00 | 0.00 | 87 | 1014.1 | |
| 20260509052048 | 3 | 0.0 | 0.0 | 0.00 | 0.00 | 0.00 | 88 | 1014.1 | |
| 20260509051527 | 3 | 0.0 | 0.0 | 0.00 | 0.00 | 0.00 | 86 | 1014.0 | |
| 20260509051049 | 3 | 0.0 | 0.0 | 0.00 | 0.00 | 0.00 | 85 | 1013.9 | |
| 20260509050527 | 3 | 0.0 | 0.0 | 0.00 | 0.00 | 0.00 | 85 | 1013.9 | |
| 20260509050028 | 3 | 0.0 | 0.0 | 0.00 | 0.00 | 0.00 | 84 | 1014.0 | |
| 20260509045528 | 4 | 0.0 | 0.0 | 0.00 | 0.00 | 0.00 | 85 | 1013.9 | |
| 20260509045028 | 4 | 0.0 | 0.0 | 0.00 | 0.00 | 0.00 | 84 | 1013.9 | |
| 20260509044548 | 4 | 0.0 | 0.0 | 0.00 | 0.00 | 0.00 | 85 | 1013.9 | |
| 20260509044028 | 4 | 0.0 | 0.0 | 0.00 | 0.00 | 0.00 | 84 | 1013.9 | |
| 20260509043528 | 4 | 0.0 | 0.0 | 0.00 | 0.00 | 0.00 | 84 | 1013.9 | |
| 20260509043028 | 4 | 0.0 | 0.0 | 0.00 | 0.00 | 0.00 | 84 | 1013.9 | |
| 20260509042528 | 4 | 0.0 | 0.0 | 0.00 | 0.00 | 0.00 | 83 | 1013.9 | |
| 20260509042048 | 4 | 0.0 | 0.0 | 0.00 | 0.00 | 0.00 | 82 | 1013.8 | |
| 20260509041529 | 5 | 0.0 | 0.0 | 0.00 | 0.00 | 0.00 | 83 | 1013.7 | |
| 20260509041027 | 5 | 0.0 | 0.0 | 0.00 | 0.00 | 0.00 | 81 | 1013.6 | |
| 20260509040527 | 5 | 0.0 | 0.0 | 0.00 | 0.00 | 0.00 | 80 | 1013.6 | |
| 20260509040027 | 5 | 0.0 | 0.0 | 0.00 | 0.00 | 0.00 | 79 | 1013.6 | |
| 20260509035527 | 5 | 0.0 | 0.0 | 0.00 | 0.00 | 0.00 | 79 | 1013.6 | |
| 20260509035029 | 5 | 0.0 | 0.0 | 0.00 | 0.00 | 0.00 | 78 | 1013.5 | |
| 20260509034549 | 5 | 0.0 | 0.0 | 0.00 | 0.00 | 0.00 | 77 | 1013.5 | |
| 20260509034029 | 5 | 0.0 | 0.0 | 0.00 | 0.00 | 0.00 | 76 | 1013.6 | |
| 20260509033528 | 5 | 0.0 | 0.0 | 0.00 | 0.00 | 0.00 | 77 | 1013.6 | |
| 20260509033048 | 5 | 0.0 | 0.0 | 0.00 | 0.00 | 0.00 | 76 | 1013.5 | |
| 20260509032528 | 5 | 0.0 | 0.0 | 0.00 | 0.00 | 0.00 | 76 | 1013.5 | |
| 20260509032048 | 5 | 0.0 | 0.0 | 0.00 | 0.00 | 0.00 | 76 | 1013.5 | |
| 20260509031528 | 5 | 0.0 | 0.0 | 0.00 | 0.00 | 0.00 | 76 | 1013.4 | |
| 20260509031028 | 5 | 0.0 | 0.0 | 0.00 | 0.00 | 0.00 | 76 | 1013.4 | |
| 20260509030528 | 6 | 0.0 | 0.0 | 0.00 | 0.00 | 0.00 | 74 | 1013.4 | |
| 20260509030048 | 6 | 0.0 | 0.0 | 0.00 | 0.00 | 0.00 | 74 | 1013.3 | |
| 20260509025527 | 6 | 0.0 | 0.0 | 0.00 | 0.00 | 0.00 | 74 | 1013.4 | |
| 20260509025027 | 6 | 0.0 | 0.0 | 0.00 | 0.00 | 0.00 | 73 | 1013.4 | |
| 20260509024527 | 6 | 0.0 | 0.0 | 0.00 | 0.00 | 0.00 | 73 | 1013.3 | |
| 20260509024047 | 6 | 0.0 | 0.0 | 0.00 | 0.00 | 0.00 | 72 | 1013.3 | |
| 20260509023529 | 6 | 0.0 | 0.0 | 0.00 | 0.00 | 0.00 | 73 | 1013.3 | |
| 20260509023029 | 6 | 0.0 | 0.0 | 0.00 | 0.00 | 0.00 | 73 | 1013.4 | |
| 20260509022549 | 6 | 0.0 | 0.0 | 0.00 | 0.00 | 0.00 | 71 | 1013.3 | |
| 20260509022029 | 7 | 0.0 | 0.0 | 0.00 | 0.00 | 0.00 | 71 | 1013.2 | |
| 20260509021528 | 7 | 0.0 | 0.0 | 0.00 | 0.00 | 0.00 | 70 | 1013.1 | |
| 20260509021048 | 7 | 0.0 | 0.0 | 0.00 | 0.00 | 0.00 | 70 | 1013.0 | |
| 20260509020528 | 7 | 0.0 | 0.0 | 0.00 | 0.00 | 0.00 | 69 | 1012.9 | |
| 20260509020028 | 7 | 0.0 | 0.0 | 0.00 | 0.00 | 0.00 | 68 | 1012.8 | |
| 20260509015528 | 8 | 0.0 | 0.0 | 0.00 | 0.00 | 0.00 | 65 | 1012.8 | |
| 20260509015028 | 8 | 0.0 | 0.0 | 0.00 | 0.00 | 0.00 | 61 | 1012.7 | |
| 20260509014528 | 8 | 0.0 | 0.0 | 0.00 | 0.00 | 0.00 | 62 | 1012.8 | |
| 20260509014027 | 8 | 0.0 | 0.0 | 0.00 | 0.00 | 0.00 | 62 | 1012.6 | |
| 20260509013527 | 8 | 0.0 | 0.0 | 0.00 | 0.00 | 0.00 | 60 | 1012.6 | |
| 20260509013027 | 8 | 0.0 | 0.0 | 0.00 | 0.00 | 0.00 | 61 | 1012.4 | |
| 20260509012547 | 8 | 16 | 0.0 | 1.6 | 0.00 | 0.00 | 0.00 | 63 | 1012.3 |
| 20260509012027 | 9 | 0.0 | 0.0 | 0.00 | 0.00 | 0.00 | 62 | 1012.1 | |
| 20260509011529 | 9 | 0.0 | 0.0 | 0.00 | 0.00 | 0.00 | 61 | 1012.0 | |
| 20260509011029 | 9 | 0.0 | 0.0 | 0.00 | 0.00 | 0.00 | 61 | 1011.9 | |
| 20260509010609 | 9 | 0.0 | 0.0 | 0.00 | 0.00 | 0.00 | 61 | 1011.8 | |
| 20260509010049 | 9 | 0.0 | 0.0 | 0.00 | 0.00 | 0.00 | 60 | 1011.8 | |
| 20260509005528 | 9 | 0.0 | 0.0 | 0.00 | 0.00 | 0.00 | 60 | 1011.7 | |
| 20260509005028 | 9 | 0.0 | 1.6 | 0.00 | 0.00 | 0.00 | 60 | 1011.5 | |
| 20260509004528 | 9 | 16 | 0.0 | 1.6 | 0.00 | 0.00 | 0.00 | 60 | 1011.3 |
| 20260509004028 | 9 | 0.0 | 0.0 | 0.00 | 0.00 | 0.00 | 60 | 1011.2 | |
| 20260509003528 | 10 | 0.0 | 0.0 | 0.00 | 0.00 | 0.00 | 58 | 1011.1 | |
| 20260509003048 | 10 | 0.0 | 0.0 | 0.00 | 0.00 | 0.00 | 57 | 1011.1 | |
| 20260509002527 | 10 | 0.0 | 0.0 | 0.00 | 0.00 | 0.00 | 56 | 1010.8 | |
| 20260509002027 | 10 | 0.0 | 0.0 | 0.00 | 0.00 | 0.00 | 54 | 1010.7 | |
| 20260509001527 | 10 | 0.0 | 0.0 | 0.00 | 0.00 | 0.00 | 54 | 1010.6 | |
| 20260509001047 | 11 | 0.0 | 0.0 | 0.00 | 0.00 | 0.00 | 53 | 1010.6 | |
| 20260509000527 | 11 | 16 | 0.0 | 1.6 | 0.00 | 0.00 | 0.00 | 50 | 1010.5 |
| 20260509000029 | 11 | 43 | 0.0 | 1.6 | 0.00 | 0.00 | 0.00 | 48 | 1010.5 |
| 20260508235549 | 11 | 43 | 0.0 | 3.2 | 0.00 | 0.00 | 0.00 | 46 | 1010.3 |
| 20260508235029 | 11 | 94 | 0.0 | 3.2 | 0.00 | 0.00 | 0.00 | 46 | 1010.3 |
| 20260508234528 | 11 | 103 | 0.0 | 1.6 | 0.00 | 0.00 | 0.00 | 46 | 1010.1 |
| 20260508234028 | 12 | 0.0 | 3.2 | 0.00 | 0.00 | 0.00 | 46 | 1010.0 | |
| 20260508233528 | 12 | 173 | 0.0 | 3.2 | 0.00 | 0.00 | 0.00 | 45 | 1010.0 |
| 20260508233028 | 12 | 309 | 0.0 | 11.3 | 0.00 | 0.00 | 0.00 | 44 | 1009.9 |
| 20260508232528 | 12 | 212 | 1.6 | 12.9 | 0.00 | 0.00 | 0.00 | 43 | 1009.9 |
| 20260508232028 | 12 | 181 | 1.6 | 3.2 | 0.00 | 0.00 | 0.00 | 43 | 1009.8 |
| 20260508231527 | 12 | 134 | 1.6 | 4.8 | 0.00 | 0.00 | 0.00 | 43 | 1009.7 |
| 20260508231027 | 12 | 358 | 0.0 | 3.2 | 0.00 | 0.00 | 0.00 | 43 | 1009.7 |
| 20260508230527 | 12 | 290 | 1.6 | 3.2 | 0.00 | 0.00 | 0.00 | 44 | 1009.7 |
| 20260508230027 | 12 | 278 | 0.0 | 3.2 | 0.00 | 0.00 | 0.00 | 42 | 1009.7 |
| 20260508225527 | 12 | 44 | 1.6 | 4.8 | 0.00 | 0.00 | 0.00 | 42 | 1009.5 |
| 20260508225027 | 13 | 28 | 1.6 | 6.4 | 0.00 | 0.00 | 0.00 | 41 | 1009.4 |
| 20260508224529 | 13 | 197 | 1.6 | 9.7 | 0.00 | 0.00 | 0.00 | 40 | 1009.4 |
| 20260508224049 | 13 | 348 | 1.6 | 4.8 | 0.00 | 0.00 | 0.00 | 40 | 1009.4 |
| 20260508223528 | 13 | 169 | 1.6 | 4.8 | 0.00 | 0.00 | 0.00 | 40 | 1009.4 |
| 20260508223053 | 13 | 231 | 0.0 | 3.2 | 0.00 | 0.00 | 0.00 | 39 | 1009.4 |
| 20260508222528 | 13 | 22 | 0.0 | 3.2 | 0.00 | 0.00 | 0.00 | 36 | 1009.4 |
| 20260508222028 | 13 | 31 | 0.0 | 3.2 | 0.00 | 0.00 | 0.00 | 32 | 1009.3 |
| 20260508221528 | 13 | 9 | 1.6 | 6.4 | 0.00 | 0.00 | 0.00 | 33 | 1009.4 |
| 20260508221108 | 14 | 286 | 1.6 | 6.4 | 0.00 | 0.00 | 0.00 | 33 | 1009.4 |
| 20260508220528 | 14 | 23 | 3.2 | 11.3 | 0.00 | 0.00 | 0.00 | 33 | 1009.4 |
| 20260508220028 | 14 | 351 | 1.6 | 9.7 | 0.00 | 0.00 | 0.00 | 33 | 1009.3 |
| 20260508215527 | 14 | 356 | 1.6 | 12.9 | 0.00 | 0.00 | 0.00 | 33 | 1009.3 |
| 20260508215027 | 14 | 302 | 1.6 | 12.9 | 0.00 | 0.00 | 0.00 | 34 | 1009.3 |
| 20260508214527 | 14 | 25 | 1.6 | 4.8 | 0.00 | 0.00 | 0.00 | 34 | 1009.1 |
| 20260508214027 | 14 | 343 | 1.6 | 6.4 | 0.00 | 0.00 | 0.00 | 34 | 1009.1 |
| 20260508213526 | 14 | 9 | 3.2 | 9.7 | 0.00 | 0.00 | 0.00 | 34 | 1009.1 |
| 20260508213029 | 14 | 10 | 3.2 | 9.7 | 0.00 | 0.00 | 0.00 | 34 | 1009.1 |
| 20260508212529 | 14 | 36 | 1.6 | 6.4 | 0.00 | 0.00 | 0.00 | 34 | 1009.0 |
| 20260508212029 | 14 | 14 | 3.2 | 9.7 | 0.00 | 0.00 | 0.00 | 34 | 1009.1 |
| 20260508211548 | 14 | 344 | 3.2 | 9.7 | 0.00 | 0.00 | 0.00 | 35 | 1009.1 |
| 20260508211028 | 14 | 34 | 1.6 | 4.8 | 0.00 | 0.00 | 0.00 | 35 | 1009.0 |
| 20260508210548 | 14 | 33 | 3.2 | 11.3 | 0.00 | 0.00 | 0.00 | 35 | 1009.1 |
| 20260508210028 | 14 | 195 | 3.2 | 6.4 | 0.00 | 0.00 | 0.00 | 35 | 1009.0 |
| 20260508205528 | 14 | 353 | 1.6 | 3.2 | 0.00 | 0.00 | 0.00 | 37 | 1009.0 |
| 20260508205028 | 14 | 6 | 1.6 | 4.8 | 0.00 | 0.00 | 0.00 | 37 | 1009.0 |
| 20260508204528 | 14 | 330 | 1.6 | 6.4 | 0.00 | 0.00 | 0.00 | 35 | 1008.9 |
| 20260508204027 | 14 | 12 | 3.2 | 6.4 | 0.00 | 0.00 | 0.00 | 35 | 1008.9 |
| 20260508203527 | 14 | 337 | 1.6 | 4.8 | 0.00 | 0.00 | 0.00 | 35 | 1008.9 |
| 20260508203027 | 14 | 6 | 3.2 | 11.3 | 0.00 | 0.00 | 0.00 | 37 | 1009.0 |
| 20260508202527 | 14 | 17 | 3.2 | 6.4 | 0.00 | 0.00 | 0.00 | 36 | 1008.9 |
| 20260508202027 | 15 | 349 | 1.6 | 6.4 | 0.00 | 0.00 | 0.00 | 36 | 1008.9 |
| 20260508201527 | 15 | 23 | 3.2 | 11.3 | 0.00 | 0.00 | 0.00 | 33 | 1008.9 |
| 20260508201027 | 15 | 37 | 3.2 | 9.7 | 0.00 | 0.00 | 0.00 | 36 | 1008.9 |
| 20260508200527 | 15 | 39 | 3.2 | 9.7 | 0.00 | 0.00 | 0.00 | 35 | 1008.7 |
| 20260508200027 | 15 | 6 | 4.8 | 9.7 | 0.00 | 0.00 | 0.00 | 35 | 1008.8 |
| 20260508195527 | 15 | 3 | 3.2 | 9.7 | 0.00 | 0.00 | 0.00 | 35 | 1008.7 |
| 20260508195028 | 15 | 16 | 3.2 | 6.4 | 0.00 | 0.00 | 0.00 | 36 | 1008.6 |
| 20260508194528 | 15 | 354 | 3.2 | 6.4 | 0.00 | 0.00 | 0.00 | 34 | 1008.6 |
| 20260508194030 | 15 | 28 | 3.2 | 6.4 | 0.00 | 0.00 | 0.00 | 34 | 1008.5 |
| 20260508193548 | 15 | 350 | 3.2 | 9.7 | 0.00 | 0.00 | 0.00 | 35 | 1008.6 |
| 20260508193028 | 15 | 5 | 1.6 | 4.8 | 0.00 | 0.00 | 0.00 | 34 | 1008.6 |
| 20260508192528 | 14 | 302 | 3.2 | 9.7 | 0.00 | 0.00 | 0.00 | 34 | 1008.6 |
| 20260508192028 | 15 | 332 | 3.2 | 6.4 | 0.00 | 0.00 | 0.00 | 32 | 1008.7 |
| 20260508191528 | 15 | 326 | 3.2 | 11.3 | 0.00 | 0.00 | 0.00 | 34 | 1008.6 |
| 20260508191027 | 15 | 355 | 4.8 | 12.9 | 0.00 | 0.00 | 0.00 | 31 | 1008.6 |
| 20260508190527 | 15 | 18 | 3.2 | 11.3 | 0.00 | 0.00 | 0.00 | 33 | 1008.5 |
| 20260508190027 | 15 | 4 | 3.2 | 9.7 | 0.00 | 0.00 | 0.00 | 32 | 1008.6 |
| 20260508185528 | 15 | 30 | 3.2 | 9.7 | 0.00 | 0.00 | 0.00 | 33 | 1008.7 |
| 20260508185028 | 15 | 4 | 1.6 | 14.5 | 0.00 | 0.00 | 0.00 | 32 | 1008.6 |